Wind_Speed
27 24 20 18 17 16 14 12 11 11 11 11 10 10 9 8 7 6 5 5 4 4 6 8 10 13 14 16 18 20 21 21 21 22 22 22 21 19 18 17 16 15 15 15
24 21 19 19 17 15 13 12 11 11 11 10 10 9 8 7 6 5 4 3 3 4 6 8 11 13 15 17 19 20 21 21 22 22 23 22 21 20 19 18 16 15 15 15
20 18 18 17 16 14 12 11 11 11 10 10 9 8 8 7 5 4 3 2 2 4 6 8 11 13 15 17 18 19 21 22 22 23 23 23 22 22 21 19 17 16 15 14
19 18 17 16 14 13 13 12 12 11 11 10 9 8 8 6 5 4 3 2 2 4 6 8 10 13 15 16 18 19 21 22 23 23 23 23 23 22 21 20 18 17 15 14
17 17 16 15 14 14 13 12 11 11 11 11 10 8 7 6 5 4 3 2 2 3 6 8 10 12 14 16 17 19 20 22 23 23 24 24 24 23 21 20 19 18 16 14
16 16 15 15 14 13 12 12 12 11 11 10 9 8 7 6 5 4 3 2 1 3 5 7 9 11 13 15 17 19 20 22 23 23 24 24 24 23 22 21 20 19 17 15
16 15 15 14 13 13 12 12 12 11 10 10 9 8 7 7 5 5 4 2 1 3 5 7 9 11 13 15 17 18 20 21 23 23 23 24 24 23 23 22 21 20 19 17
14 14 13 13 12 12 12 12 12 11 10 9 8 7 7 7 6 5 4 3 1 2 5 7 9 11 13 15 16 18 19 21 23 23 24 23 23 23 23 23 22 21 20 18
13 13 11 11 11 12 12 11 11 11 10 9 8 7 7 7 7 5 5 4 2 3 5 7 9 11 13 14 16 18 19 21 22 23 23 23 23 23 23 23 22 21 20 19
12 12 11 10 11 10 10 10 10 10 9 9 8 8 7 8 7 6 5 4 3 3 5 7 9 11 12 14 16 17 19 20 21 22 23 23 23 23 23 23 23 22 21 20
11 11 11 10 10 10 10 10 10 10 9 9 8 7 8 8 7 6 6 5 4 4 5 7 9 11 12 14 15 17 18 19 21 21 22 23 23 23 23 23 23 22 21 20
10 10 10 10 10 11 11 10 10 10 10 9 8 6 9 8 8 7 7 6 5 5 5 7 9 11 12 14 15 17 18 19 20 21 22 22 22 22 23 23 23 22 21 20
10 10 10 11 11 11 11 11 11 11 10 10 9 7 10 9 9 9 8 7 6 6 6 7 9 10 12 13 15 16 18 19 20 20 21 21 21 22 22 22 22 22 21 20
10 11 11 11 12 12 12 12 12 12 11 11 10 10 11 11 10 10 9 8 7 7 7 8 9 10 12 14 15 16 17 18 19 20 20 21 21 21 21 22 21 21 21 20
11 12 12 13 13 13 13 13 13 13 12 12 11 11 11 12 11 11 10 9 8 8 8 8 10 11 12 14 15 16 17 18 19 19 20 20 21 21 21 21 20 20 20 20
12 13 13 14 14 14 13 13 13 14 13 13 12 11 12 12 12 12 11 10 10 9 9 9 10 11 13 14 15 15 16 17 18 19 19 19 20 20 20 20 20 20 20 20
13 13 13 13 14 14 13 12 14 14 14 14 13 13 13 13 13 13 12 12 11 10 10 10 11 12 13 14 14 15 15 16 17 18 18 19 20 20 20 19 19 19 19 19
13 13 14 13 14 14 12 14 14 14 13 14 13 13 13 13 14 13 13 13 12 12 11 11 12 13 13 14 14 15 15 16 17 18 18 19 19 19 19 19 19 19 19 19
13 14 15 14 14 13 12 14 14 14 13 14 14 14 14 14 14 14 14 14 14 13 13 13 13 13 14 14 15 15 16 16 17 18 18 19 19 19 19 19 19 19 19 18
15 16 16 16 15 13 12 15 15 15 14 15 16 16 16 16 16 16 16 16 16 15 15 14 14 14 15 15 15 16 16 17 17 18 18 19 19 19 19 19 19 19 18 18
18 19 19 18 17 15 15 17 17 16 16 17 17 17 17 17 17 17 17 17 17 17 16 16 16 16 16 16 16 16 17 17 18 18 19 19 19 19 19 19 19 18 18 18
21 22 21 21 20 18 18 19 19 19 19 19 19 20 20 20 20 19 19 19 19 18 18 18 18 17 17 17 17 18 18 18 18 19 20 20 20 19 19 19 19 18 18 18
24 24 24 24 23 22 23 22 22 22 22 22 22 22 22 22 22 21 21 21 20 20 20 20 20 19 19 19 19 19 19 19 19 20 20 21 20 20 20 20 19 19 19 18
28 28 28 27 25 25 26 26 26 26 26 25 25 24 24 24 24 24 23 23 23 23 22 22 22 21 21 21 21 21 20 20 21 21 21 21 21 21 20 20 20 20 20 19
31 32 32 31 30 30 29 30 30 29 28 28 28 27 27 27 26 26 26 26 25 25 24 24 24 24 23 23 23 23 22 22 22 22 22 22 22 22 21 21 21 21 21 21
33 35 37 35 34 35 33 33 33 32 31 31 31 30 30 30 29 29 28 28 28 27 27 27 26 26 26 25 25 25 24 24 24 23 23 23 23 23 23 23 23 23 23 22
Wind_Direction
216 217 219 222 227 234 243 250 258 263 267 273 277 282 286 288 292 300 307 322 343 4 17 18 15 13 11 10 9 8 5 3 0 358 354 351 347 343 339 334 327 317 306 297
211 211 212 218 225 234 242 249 256 262 266 269 272 273 277 277 279 290 303 326 356 18 26 23 18 15 13 11 10 8 7 5 3 0 358 355 353 349 345 339 332 324 315 305
206 207 211 216 222 231 242 250 256 261 266 267 266 266 268 265 269 276 289 319 353 21 28 25 21 17 14 12 10 10 9 7 4 2 0 359 357 354 350 345 339 331 324 316
199 202 207 213 220 229 237 244 250 258 262 261 262 259 260 261 264 269 277 298 346 25 29 26 22 18 15 13 11 10 9 6 4 3 3 2 1 358 356 353 348 341 334 326
194 199 203 209 218 226 234 240 247 256 258 257 256 256 255 259 259 264 271 281 339 22 27 25 21 18 15 13 11 10 8 6 5 5 4 4 3 2 0 358 355 350 343 335
191 197 203 209 216 224 232 238 245 252 257 255 252 252 250 255 254 256 259 268 329 20 26 23 18 14 12 11 9 8 7 6 5 4 4 4 3 3 2 1 359 357 353 348
190 198 206 213 221 227 232 242 249 255 258 256 249 251 253 254 250 248 247 257 305 10 18 16 11 9 8 7 6 5 5 6 5 5 4 4 4 4 4 3 1 360 358 356
193 200 206 214 223 229 235 244 251 258 256 248 246 251 248 249 245 241 240 247 287 357 9 9 6 6 5 5 4 3 3 3 4 4 5 4 4 5 5 5 4 3 3 2
192 198 207 219 228 235 242 247 251 256 254 250 249 247 242 243 241 237 235 243 276 331 355 1 2 2 1 1 1 1 2 2 2 3 4 5 5 6 6 6 6 5 5 5
194 203 213 223 229 237 244 249 251 254 254 253 248 244 239 238 240 238 237 248 274 311 340 351 355 356 357 357 357 358 360 1 2 2 2 4 5 6 6 6 7 6 6 7
202 212 217 227 236 243 249 253 253 254 256 255 246 242 240 238 237 240 243 254 273 300 324 338 346 349 351 353 354 356 358 359 360 0 1 3 4 5 6 6 7 8 8 8
212 220 225 235 242 249 253 256 256 256 256 255 252 242 241 239 236 240 246 256 272 291 311 328 339 344 347 350 352 354 356 357 358 359 0 2 3 5 6 8 9 10 9 10
226 231 233 237 245 251 254 254 257 260 260 259 257 248 241 240 240 242 245 255 270 284 300 319 332 339 343 347 349 351 353 355 356 358 360 1 2 4 6 7 8 10 10 11
240 241 243 247 249 250 252 254 258 261 260 259 254 247 242 242 242 243 245 253 266 276 292 310 323 331 337 342 345 347 349 351 353 356 358 360 1 2 4 5 7 8 9 9
252 251 252 254 256 256 255 255 258 259 258 257 249 244 242 243 242 244 247 254 263 273 286 302 314 323 331 337 341 344 347 350 352 354 356 357 359 360 1 2 4 6 7 7
257 259 259 258 260 260 259 261 262 261 258 256 248 242 242 244 244 246 250 255 262 270 282 296 307 317 326 332 337 341 344 347 350 353 354 355 356 358 359 360 2 4 4 5
265 266 264 262 261 263 262 260 261 261 260 255 249 245 245 246 246 248 251 257 261 268 279 291 303 312 321 326 331 336 340 344 348 350 351 352 354 355 356 357 358 360 1 1
267 267 267 266 263 265 265 261 262 261 258 254 252 249 248 248 248 249 252 255 260 266 275 285 296 307 315 321 326 330 335 339 342 346 347 348 350 351 353 354 354 356 357 358
267 267 269 270 268 266 265 264 263 261 257 256 254 253 252 251 252 252 253 255 260 266 272 281 291 300 309 315 319 324 329 333 337 340 343 345 346 347 348 350 351 352 353 355
266 267 269 270 270 266 264 263 263 261 258 256 257 257 256 255 254 254 255 257 261 266 270 278 286 295 302 307 312 318 323 327 331 334 338 341 343 344 344 345 347 349 352 353
266 266 267 268 268 266 263 261 262 262 258 256 257 259 259 258 257 257 258 259 262 265 270 277 284 290 295 301 307 312 317 321 324 328 332 335 337 339 341 341 342 344 347 349
267 266 266 267 267 266 262 261 260 260 259 259 259 259 259 259 259 260 261 262 263 267 271 275 280 285 290 295 301 306 311 314 318 322 326 329 331 333 334 336 337 337 339 342
265 266 265 264 265 265 263 262 261 260 259 258 258 258 259 259 260 260 262 263 265 267 270 274 277 281 286 290 295 300 305 308 312 317 320 322 325 327 328 330 331 332 333 334
264 264 264 263 263 262 262 262 262 260 259 258 258 259 259 259 260 261 261 262 265 268 270 272 275 278 282 286 290 295 299 303 307 311 314 315 318 320 322 323 325 326 327 328
264 264 264 263 262 260 259 260 260 261 260 259 258 259 259 260 260 261 261 262 264 266 269 271 273 276 279 282 285 289 293 297 301 305 308 310 311 313 315 317 318 319 320 321
264 263 262 262 261 260 258 259 261 261 260 260 259 259 259 260 261 261 261 262 263 265 267 269 271 273 276 279 282 285 288 291 295 300 303 306 307 308 310 311 313 313 314 314
Height
5825 5833 5838 5843 5846 5849 5851 5853 5853 5854 5854 5854 5854 5854 5853 5852 5851 5850 5849 5848 5846 5845 5843 5841 5839 5836 5834 5830 5827 5823 5819 5815 5811 5806 5802 5798 5794 5790 5786 5783 5780 5777 5775 5774
5825 5831 5836 5840 5843 5846 5848 5850 5851 5851 5851 5852 5852 5852 5851 5850 5850 5849 5848 5847 5845 5844 5842 5840 5838 5836 5833 5830 5826 5822 5819 5814 5810 5806 5801 5797 5792 5788 5784 5780 5777 5774 5772 5770
5824 5830 5834 5838 5841 5844 5846 5848 5849 5849 5849 5850 5850 5850 5850 5849 5848 5848 5847 5846 5845 5843 5841 5839 5837 5835 5832 5829 5826 5822 5818 5814 5810 5805 5801 5796 5791 5786 5782 5778 5775 5772 5769 5766
5823 5828 5832 5836 5839 5842 5844 5845 5846 5847 5847 5848 5849 5849 5849 5848 5847 5847 5846 5845 5844 5842 5841 5839 5837 5835 5832 5829 5825 5822 5818 5814 5810 5805 5800 5796 5791 5786 5781 5777 5773 5769 5766 5763
5823 5827 5831 5835 5838 5840 5842 5843 5844 5844 5845 5846 5846 5847 5847 5846 5845 5845 5845 5844 5843 5842 5840 5838 5836 5834 5832 5829 5825 5822 5818 5814 5810 5805 5800 5795 5790 5785 5781 5776 5772 5768 5764 5761
5823 5827 5830 5833 5835 5838 5840 5841 5842 5842 5843 5844 5844 5845 5846 5844 5844 5844 5844 5843 5842 5841 5839 5838 5836 5834 5831 5828 5825 5822 5818 5814 5810 5805 5800 5795 5790 5785 5780 5776 5771 5767 5763 5759
5823 5826 5829 5832 5834 5836 5838 5840 5841 5841 5841 5842 5842 5843 5844 5843 5843 5843 5843 5842 5841 5840 5839 5837 5835 5833 5831 5828 5825 5822 5818 5814 5810 5805 5800 5795 5790 5786 5781 5776 5771 5766 5762 5758
5823 5827 5829 5831 5833 5835 5836 5838 5839 5839 5839 5840 5840 5841 5843 5842 5841 5841 5841 5841 5840 5839 5838 5836 5835 5833 5830 5827 5824 5821 5818 5814 5810 5805 5800 5796 5791 5786 5781 5776 5771 5767 5762 5758
5823 5826 5828 5830 5832 5834 5835 5835 5836 5837 5837 5838 5838 5840 5840 5840 5840 5840 5840 5840 5839 5838 5837 5836 5834 5832 5829 5827 5824 5821 5817 5813 5809 5805 5801 5796 5791 5786 5781 5777 5772 5767 5762 5758
5823 5826 5828 5829 5831 5832 5833 5834 5834 5835 5835 5835 5837 5837 5838 5838 5838 5838 5838 5838 5838 5837 5836 5835 5833 5831 5829 5826 5823 5820 5817 5813 5809 5805 5801 5796 5791 5787 5782 5777 5772 5767 5763 5759
5823 5826 5827 5828 5830 5830 5832 5833 5832 5833 5833 5834 5834 5838 5836 5836 5836 5836 5837 5837 5836 5836 5835 5833 5832 5830 5827 5825 5822 5819 5816 5813 5809 5805 5801 5796 5792 5787 5782 5778 5773 5768 5763 5759
5823 5825 5826 5827 5828 5829 5830 5830 5831 5831 5831 5831 5832 5837 5833 5834 5834 5834 5835 5835 5835 5834 5833 5832 5830 5828 5826 5824 5821 5818 5815 5812 5809 5805 5800 5796 5792 5787 5783 5778 5773 5769 5764 5760
5823 5824 5825 5826 5829 5828 5828 5828 5828 5829 5829 5829 5830 5834 5831 5831 5832 5832 5832 5833 5832 5832 5832 5830 5829 5827 5825 5823 5820 5817 5814 5811 5808 5804 5800 5796 5792 5787 5783 5779 5774 5770 5765 5761
5821 5822 5824 5825 5824 5824 5825 5826 5826 5826 5826 5827 5828 5829 5829 5829 5829 5830 5830 5830 5830 5830 5830 5829 5827 5825 5823 5821 5819 5816 5813 5810 5807 5803 5799 5795 5791 5787 5783 5779 5775 5771 5766 5762
5820 5820 5821 5821 5821 5822 5822 5823 5823 5823 5823 5824 5825 5825 5826 5826 5827 5827 5827 5828 5828 5828 5827 5826 5825 5823 5822 5819 5817 5814 5812 5809 5806 5802 5798 5795 5791 5787 5783 5779 5775 5771 5767 5763
5817 5818 5818 5818 5818 5818 5819 5820 5820 5820 5820 5821 5821 5822 5823 5823 5824 5824 5825 5825 5825 5825 5825 5824 5823 5821 5819 5817 5815 5813 5810 5807 5804 5801 5797 5794 5790 5787 5783 5779 5775 5771 5767 5764
5814 5815 5815 5815 5815 5815 5817 5817 5816 5817 5817 5818 5818 5820 5819 5820 5820 5821 5821 5822 5822 5822 5821 5821 5820 5818 5817 5815 5813 5811 5808 5805 5803 5799 5796 5793 5789 5786 5782 5778 5775 5771 5767 5764
5812 5811 5811 5812 5813 5813 5816 5813 5813 5814 5814 5815 5815 5816 5816 5817 5817 5818 5818 5818 5818 5818 5818 5818 5817 5815 5814 5812 5810 5808 5806 5803 5801 5798 5795 5791 5788 5785 5781 5777 5774 5770 5767 5763
5808 5808 5808 5808 5808 5809 5811 5810 5809 5810 5811 5811 5811 5812 5812 5813 5814 5814 5814 5815 5815 5815 5815 5814 5813 5812 5811 5809 5807 5805 5803 5801 5798 5796 5793 5789 5786 5783 5779 5776 5773 5769 5766 5763
5804 5804 5805 5804 5804 5805 5808 5806 5805 5807 5807 5807 5807 5808 5808 5809 5810 5811 5811 5811 5811 5811 5811 5810 5809 5808 5807 5806 5804 5802 5800 5798 5796 5793 5790 5787 5784 5781 5778 5774 5771 5768 5765 5761
5800 5800 5800 5800 5799 5801 5802 5801 5802 5804 5804 5803 5803 5803 5804 5805 5806 5806 5806 5806 5806 5806 5806 5806 5805 5804 5803 5802 5800 5798 5797 5795 5792 5790 5787 5784 5781 5778 5775 5772 5769 5766 5763 5760
5794 5794 5795 5795 5795 5798 5797 5796 5797 5797 5797 5798 5798 5798 5799 5800 5800 5800 5801 5801 5801 5801 5801 5801 5800 5799 5798 5797 5796 5794 5792 5791 5788 5786 5784 5781 5778 5775 5773 5770 5767 5764 5761 5758
5788 5789 5788 5790 5792 5791 5790 5790 5790 5791 5791 5791 5792 5792 5793 5794 5794 5795 5795 5795 5795 5795 5795 5795 5795 5794 5793 5792 5791 5789 5788 5786 5784 5782 5779 5777 5774 5772 5769 5766 5764 5761 5758 5756
5781 5781 5781 5782 5783 5783 5783 5783 5783 5783 5784 5784 5785 5786 5786 5787 5787 5788 5788 5789 5789 5789 5789 5789 5788 5788 5787 5786 5785 5784 5782 5781 5779 5777 5775 5772 5770 5768 5765 5763 5760 5757 5755 5752
5773 5772 5771 5772 5774 5774 5775 5774 5775 5775 5776 5777 5778 5778 5779 5779 5780 5780 5781 5781 5781 5782 5782 5782 5781 5781 5780 5780 5779 5778 5776 5775 5773 5771 5769 5767 5765 5763 5760 5758 5755 5753 5750 5748
5764 5762 5761 5762 5764 5763 5766 5766 5766 5766 5767 5768 5769 5770 5770 5771 5772 5772 5773 5773 5773 5774 5774 5774 5774 5773 5773 5772 5772 5771 5769 5768 5767 5765 5763 5761 5759 5757 5755 5752 5750 5748 5745 5743